Weather in Krupp

Russia / Pskov Oblast     57°54′21″N   27°50′10″E
temp.,
°C
wind,
m/s
gust,
m/s
humid.,
%
clouds,
%
prec.,
mm/h
press.,
hPa
HPBL,
m
20 january, wed
wed2000:00−13s238810 0.0 101628
03:00−14s33905 0.0 101733
06:00−13sse35910 0.0 101666
09:00−14sse46920 0.0 1016120
12:00−12sse58890 0.0 1015217
15:00−11sse5108927 0.0 1014271
18:00−11sse6108973 0.0 1013266
21:00−10sse6118987 0.0 1011394
21 january, thu
thu2100:00−10sse61191100 0.2 1010428
03:00−9sse61094100 0.9 1008501
06:00−8se6994100 0.9 1006409
09:00−7se5892100 1.3 1005340
12:00−5se5893100 0.4 1004292
15:00−2sse5895100 1.7 1004261
18:000sse5997100 2.1 1003282
21:00+1s4894100 2.6 1003240
22 january, fri
fri2200:000sse4793100 0.0 1002168
03:00−1sse589399 0.0 1002142
06:00−3sse479391 0.0 1001135
09:00−2sse479479 0.0 1001174
12:00+1s5994100 0.0 1001416
15:00+1sse61094100 0.0 1000342
18:00+1sse51093100 0.0 999316
21:00+1sse6119499 0.0 999326
23 january, sat
sat2300:00+1sse5995100 0.0 999294
03:00+1s4996100 0.1 999311
06:00+1s4796100 0.2 998175
09:00+1ssw3497100 0.4 100096
12:00+1ssw2398100 0.1 100148
15:00+1s3499100 0.1 100191
18:00+1sse3699100 0.0 1002142
21:00+1sse4798100 0.0 1001185
24 january, sun
sun2400:00+1se5998100 0.0 1000243
03:00+2se61298100 0.3 998323
06:00+2sse51097100 0.1 997277
09:00+1sse71393100 0.2 997419
12:00+1sse61296100 1.1 997353
15:00+1sse61196100 1.8 996324
18:00+1sse4898100 0.5 994198
21:00+2sse4798100 1.2 994142